History for KNYNEWYO585

Bryant Park, New York, NY — Current Conditions
Daily Summary for August 22, 2017
  Current: High: Low: Average:
Temperature: 89.6°F 91.4°F 76.3°F 83.9°F
Dew Point: 68.5°F 72.9°F 66.6°F 70.6°F
Humidity: 50% 88% 44% 72%
Wind Speed: 3.4mph 31.5mph - 6.9mph
Wind Gust: 7.4mph 45.0mph - -
Wind: East - - ENE
Pressure: 29.84in 30.15in 29.83in -
Precipitation: 0.00in      
Solar Radiation: 47 watts/m^2      
UV Index: 1.0      
Statistics for the rest of the month
    High: Low: Average:
Temperature:   92.1°F 66.4°F 77.7°F
Dew Point:   76.6°F 43.9°F 62.4°F
Humidity:   93.0% 28.0% 62.6%
Wind Speed:   36.2mph from the SSW - 1.7mph
Wind Gust:   45.0mph from the SE - -
Wind:   - - SE
Pressure:   30.28in 29.80in -
Precipitation:   0.19in    
KNYNEWYO585 Weather Graph
Tabular Data for August 22, 2017
Time Temp. Heat Index Dew Point Pressure Wind Gust Humidity Rainfall Solar Radiation
00:03 78.8°F - 69.1°F 30.14in 7.4mph 72% 0.00in 0.00 watts/m^2
00:08 78.8°F - 69.4°F 30.14in 14.8mph 73% 0.00in 0.00 watts/m^2
00:13 78.8°F - 69.4°F 30.14in 14.8mph 73% 0.00in 0.00 watts/m^2
00:18 78.8°F - 69.8°F 30.14in 22.1mph 74% 0.00in 0.00 watts/m^2
00:23 78.6°F - 70.2°F 30.13in 14.8mph 75% 0.00in 0.00 watts/m^2
00:28 78.6°F - 70.2°F 30.14in 14.8mph 75% 0.00in 0.00 watts/m^2
00:33 78.4°F - 70.0°F 30.14in 22.1mph 75% 0.00in 0.00 watts/m^2
00:38 78.4°F - 70.0°F 30.13in 22.1mph 75% 0.00in 0.00 watts/m^2
00:43 78.4°F - 70.3°F 30.13in 14.8mph 76% 0.00in 0.00 watts/m^2
00:48 78.3°F - 70.2°F 30.12in 14.8mph 76% 0.00in 0.00 watts/m^2
00:53 78.3°F - 70.2°F 30.12in 14.8mph 76% 0.00in 0.00 watts/m^2
00:58 78.3°F - 70.2°F 30.12in 7.4mph 76% 0.00in 0.00 watts/m^2
01:03 78.3°F - 70.2°F 30.13in 14.8mph 76% 0.00in 0.00 watts/m^2
01:08 78.1°F - 70.0°F 30.13in 22.1mph 76% 0.00in 0.00 watts/m^2
01:14 78.1°F - 70.0°F 30.13in 14.8mph 76% 0.00in 0.00 watts/m^2
01:19 78.1°F - 70.3°F 30.11in 14.8mph 77% 0.00in 0.00 watts/m^2
01:25 77.7°F - 70.0°F 30.12in 14.8mph 77% 0.00in 0.00 watts/m^2
01:30 77.7°F - 70.0°F 30.12in 7.4mph 77% 0.00in 0.00 watts/m^2
01:35 77.7°F - 70.0°F 30.12in 14.8mph 77% 0.00in 0.00 watts/m^2
01:40 77.7°F - 70.0°F 30.11in 14.8mph 77% 0.00in 0.00 watts/m^2
01:46 77.7°F - 70.0°F 30.11in 14.8mph 77% 0.00in 0.00 watts/m^2
01:51 77.7°F - 70.0°F 30.11in 7.4mph 77% 0.00in 0.00 watts/m^2
01:56 77.7°F - 70.0°F 30.11in 7.4mph 77% 0.00in 0.00 watts/m^2
02:01 77.7°F - 70.0°F 30.11in 14.8mph 77% 0.00in 0.00 watts/m^2
02:06 77.7°F - 70.0°F 30.11in 7.4mph 77% 0.00in 0.00 watts/m^2
02:11 77.7°F - 70.0°F 30.11in 7.4mph 77% 0.00in 0.00 watts/m^2
02:16 77.7°F - 70.0°F 30.11in 7.4mph 77% 0.00in 0.00 watts/m^2
02:21 77.7°F - 70.0°F 30.11in 7.4mph 77% 0.00in 0.00 watts/m^2
02:26 77.7°F - 70.3°F 30.11in 0.0mph 78% 0.00in 0.00 watts/m^2
02:31 77.7°F - 70.3°F 30.11in 7.4mph 78% 0.00in 0.00 watts/m^2
02:36 77.7°F - 70.7°F 30.10in 7.4mph 79% 0.00in 0.00 watts/m^2
02:42 77.7°F - 70.7°F 30.10in 7.4mph 79% 0.00in 0.00 watts/m^2
02:47 77.5°F - 70.9°F 30.10in 7.4mph 80% 0.00in 0.00 watts/m^2
02:52 77.5°F - 70.9°F 30.10in 7.4mph 80% 0.00in 0.00 watts/m^2
02:57 77.5°F - 70.9°F 30.10in 14.8mph 80% 0.00in 0.00 watts/m^2
03:03 77.5°F - 70.9°F 30.10in 7.4mph 80% 0.00in 0.00 watts/m^2
03:08 77.5°F - 70.9°F 30.10in 14.8mph 80% 0.00in 0.00 watts/m^2
03:13 77.2°F - 70.9°F 30.09in 14.8mph 81% 0.00in 0.00 watts/m^2
03:18 77.0°F - 71.1°F 30.09in 7.4mph 82% 0.00in 0.00 watts/m^2
03:24 77.0°F - 71.1°F 30.10in 14.8mph 82% 0.00in 0.00 watts/m^2
03:29 77.0°F - 71.4°F 30.09in 7.4mph 83% 0.00in 0.00 watts/m^2
03:34 77.0°F - 71.1°F 30.09in 0.0mph 82% 0.00in 0.00 watts/m^2
03:39 77.0°F - 71.4°F 30.08in 0.0mph 83% 0.00in 0.00 watts/m^2
03:44 76.8°F - 71.2°F 30.08in 0.0mph 83% 0.00in 0.00 watts/m^2
03:50 76.8°F - 71.2°F 30.08in 0.0mph 83% 0.00in 0.00 watts/m^2
03:55 76.8°F - 71.6°F 30.08in 14.8mph 84% 0.00in 0.00 watts/m^2
03:56 76.8°F - 71.6°F 30.08in 14.8mph 84% 0.00in 0.00 watts/m^2
04:01 76.6°F - 71.4°F 30.08in 14.8mph 84% 0.00in 0.00 watts/m^2
04:07 76.6°F - 71.4°F 30.09in 14.8mph 84% 0.00in 0.00 watts/m^2
04:12 76.6°F - 71.4°F 30.09in 7.4mph 84% 0.00in 0.00 watts/m^2
04:17 76.6°F - 71.4°F 30.09in 7.4mph 84% 0.00in 0.00 watts/m^2
04:23 76.6°F - 71.8°F 30.09in 22.1mph 85% 0.00in 0.00 watts/m^2
04:28 76.6°F - 71.8°F 30.09in 14.8mph 85% 0.00in 0.00 watts/m^2
04:33 76.6°F - 71.8°F 30.08in 0.0mph 85% 0.00in 0.00 watts/m^2
04:38 76.3°F - 71.4°F 30.08in 7.4mph 85% 0.00in 0.00 watts/m^2
04:43 76.3°F - 71.4°F 30.08in 0.0mph 85% 0.00in 0.00 watts/m^2
04:49 76.3°F - 71.4°F 30.08in 0.0mph 85% 0.00in 0.00 watts/m^2
04:55 76.3°F - 71.4°F 30.07in 14.8mph 85% 0.00in 0.00 watts/m^2
05:00 76.3°F - 71.4°F 30.08in 7.4mph 85% 0.00in 0.00 watts/m^2
05:05 76.6°F - 71.4°F 30.08in 7.4mph 84% 0.00in 0.00 watts/m^2
05:10 76.6°F - 71.4°F 30.08in 14.8mph 84% 0.00in 0.00 watts/m^2
05:15 76.6°F - 70.7°F 30.08in 14.8mph 82% 0.00in 0.00 watts/m^2
05:21 76.8°F - 71.2°F 30.08in 14.8mph 83% 0.00in 0.00 watts/m^2
05:26 76.6°F - 71.1°F 30.08in 7.4mph 83% 0.00in 0.00 watts/m^2
05:31 76.6°F - 71.4°F 30.08in 7.4mph 84% 0.00in 0.00 watts/m^2
05:36 76.6°F - 71.4°F 30.08in 0.0mph 84% 0.00in 0.00 watts/m^2
05:41 76.6°F - 71.4°F 30.08in 0.0mph 84% 0.00in 0.00 watts/m^2
05:46 76.6°F - 71.8°F 30.07in 0.0mph 85% 0.00in 0.00 watts/m^2
05:51 76.6°F - 71.8°F 30.08in 0.0mph 85% 0.00in 0.00 watts/m^2
05:57 76.6°F - 71.8°F 30.08in 14.8mph 85% 0.00in 0.00 watts/m^2
06:02 76.5°F - 71.6°F 30.08in 0.0mph 85% 0.00in 0.00 watts/m^2
06:07 76.5°F - 71.6°F 30.07in 14.8mph 85% 0.00in 0.02 watts/m^2
06:13 76.5°F - 71.6°F 30.08in 14.8mph 85% 0.00in 0.63 watts/m^2
06:18 76.5°F - 71.6°F 30.08in 22.1mph 85% 0.00in 1.89 watts/m^2
06:23 76.5°F - 72.0°F 30.08in 7.4mph 86% 0.00in 3.72 watts/m^2
06:28 76.3°F - 71.8°F 30.08in 14.8mph 86% 0.00in 4.86 watts/m^2
06:33 76.3°F - 71.4°F 30.08in 14.8mph 85% 0.00in 6.76 watts/m^2
06:38 76.3°F - 71.1°F 30.08in 14.8mph 84% 0.00in 8.67 watts/m^2
06:43 76.3°F - 71.1°F 30.08in 22.1mph 84% 0.00in 11.09 watts/m^2
06:48 76.3°F - 70.7°F 30.07in 14.8mph 83% 0.00in 13.61 watts/m^2
06:54 76.3°F - 71.1°F 30.08in 7.4mph 84% 0.00in 14.55 watts/m^2
06:59 76.5°F - 70.9°F 30.07in 14.8mph 83% 0.00in 17.80 watts/m^2
07:04 76.5°F - 71.2°F 30.07in 22.1mph 84% 0.00in 22.79 watts/m^2
07:09 76.5°F - 71.2°F 30.07in 7.4mph 84% 0.00in 26.01 watts/m^2
07:14 76.5°F - 71.2°F 30.06in 7.4mph 84% 0.00in 27.25 watts/m^2
07:20 76.6°F - 71.8°F 30.06in 14.8mph 85% 0.00in 32.96 watts/m^2
07:25 76.6°F - 71.8°F 30.07in 7.4mph 85% 0.00in 34.09 watts/m^2
07:30 76.6°F - 71.8°F 30.07in 7.4mph 85% 0.00in 34.21 watts/m^2
07:36 76.6°F - 71.4°F 30.07in 14.8mph 84% 0.00in 37.52 watts/m^2
07:41 76.8°F - 71.6°F 30.07in 0.0mph 84% 0.00in 37.32 watts/m^2
07:46 76.8°F - 71.2°F 30.07in 14.8mph 83% 0.00in 42.16 watts/m^2
07:52 76.8°F - 72.0°F 30.06in 7.4mph 85% 0.00in 50.92 watts/m^2
07:57 76.8°F - 72.3°F 30.07in 14.8mph 86% 0.00in 47.04 watts/m^2
08:02 76.8°F - 72.3°F 30.07in 22.1mph 86% 0.00in 45.91 watts/m^2
08:08 76.8°F - 72.7°F 30.07in 14.8mph 87% 0.00in 44.61 watts/m^2
08:13 76.6°F - 72.9°F 30.07in 22.1mph 88% 0.00in 58.57 watts/m^2
08:18 76.6°F - 72.9°F 30.06in 29.5mph 88% 0.00in 73.02 watts/m^2
08:23 76.6°F - 72.5°F 30.06in 7.4mph 87% 0.00in 71.40 watts/m^2
08:28 76.6°F - 72.1°F 30.06in 7.4mph 86% 0.00in 72.83 watts/m^2
08:33 76.6°F - 71.8°F 30.06in 7.4mph 85% 0.00in 60.49 watts/m^2
08:39 76.6°F - 71.4°F 30.05in 7.4mph 84% 0.00in 82.92 watts/m^2
08:44 76.8°F - 71.6°F 30.06in 14.8mph 84% 0.00in 100.21 watts/m^2
08:49 76.8°F - 72.0°F 30.05in 7.4mph 85% 0.00in 83.40 watts/m^2
08:54 77.0°F - 71.8°F 30.06in 45.0mph 84% 0.00in 87.74 watts/m^2
08:59 77.2°F - 71.6°F 30.06in 14.8mph 83% 0.00in 107.61 watts/m^2
09:04 77.4°F - 71.8°F 30.06in 7.4mph 83% 0.00in 96.37 watts/m^2
09:09 77.5°F - 72.0°F 30.05in 22.1mph 83% 0.00in 97.80 watts/m^2
09:14 77.5°F - 72.0°F 30.05in 14.8mph 83% 0.00in 100.52 watts/m^2
09:19 77.7°F - 72.1°F 30.05in 22.1mph 83% 0.00in 98.16 watts/m^2
09:24 77.7°F - 72.1°F 30.05in 22.1mph 83% 0.00in 100.89 watts/m^2
09:30 77.7°F - 72.1°F 30.04in 14.8mph 83% 0.00in 92.67 watts/m^2
09:35 77.7°F - 71.8°F 30.04in 22.1mph 82% 0.00in 103.40 watts/m^2
09:40 77.7°F - 71.8°F 30.04in 7.4mph 82% 0.00in 131.66 watts/m^2
09:45 77.9°F - 71.2°F 30.04in 7.4mph 80% 0.00in 126.32 watts/m^2
09:50 77.9°F - 70.9°F 30.04in 22.1mph 79% 0.00in 167.79 watts/m^2
09:55 78.1°F - 71.1°F 30.04in 14.8mph 79% 0.00in 150.93 watts/m^2
10:00 78.3°F - 70.9°F 30.03in 14.8mph 78% 0.00in 137.96 watts/m^2
10:06 78.4°F - 71.4°F 30.04in 14.8mph 79% 0.00in 153.24 watts/m^2
10:11 78.4°F - 71.1°F 30.04in 14.8mph 78% 0.00in 136.69 watts/m^2
10:17 78.6°F - 71.2°F 30.04in 22.1mph 78% 0.00in 140.58 watts/m^2
10:22 78.8°F - 71.8°F 30.04in 22.1mph 79% 0.00in 119.40 watts/m^2
10:27 78.8°F - 71.8°F 30.03in 7.4mph 79% 0.00in 135.51 watts/m^2
10:33 78.8°F - 71.4°F 30.03in 14.8mph 78% 0.00in 132.04 watts/m^2
10:38 79.0°F - 70.9°F 30.03in 7.4mph 76% 0.00in 138.72 watts/m^2
10:43 79.0°F - 70.9°F 30.03in 14.8mph 76% 0.00in 138.01 watts/m^2
10:49 79.0°F - 70.9°F 30.03in 7.4mph 76% 0.00in 141.07 watts/m^2
10:54 79.0°F - 70.9°F 30.03in 14.8mph 76% 0.00in 168.17 watts/m^2
10:59 79.0°F - 71.6°F 30.03in 14.8mph 78% 0.00in 163.81 watts/m^2
11:04 79.0°F - 71.6°F 30.02in 7.4mph 78% 0.00in 149.58 watts/m^2
11:09 79.0°F - 70.9°F 30.03in 0.0mph 76% 0.00in 160.38 watts/m^2
11:14 79.2°F - 70.5°F 30.02in 0.0mph 75% 0.00in 126.26 watts/m^2
11:19 79.3°F - 70.3°F 30.02in 14.8mph 74% 0.00in 130.82 watts/m^2
11:25 79.3°F - 70.7°F 30.02in 7.4mph 75% 0.00in 125.68 watts/m^2
11:30 79.3°F - 70.7°F 30.01in 0.0mph 75% 0.00in 142.92 watts/m^2
11:35 79.5°F - 70.5°F 30.02in 22.1mph 74% 0.00in 136.66 watts/m^2
11:40 79.7°F - 70.3°F 30.02in 22.1mph 73% 0.00in 133.97 watts/m^2
11:46 79.9°F - 70.5°F 30.01in 22.1mph 73% 0.00in 125.32 watts/m^2
11:51 80.1°F 83.5°F 70.7°F 30.01in 7.4mph 73% 0.00in 121.13 watts/m^2
11:56 80.1°F 83.4°F 70.3°F 30.01in 7.4mph 72% 0.00in 123.74 watts/m^2
12:01 80.2°F 83.4°F 70.0°F 30.00in 14.8mph 71% 0.00in 136.81 watts/m^2
12:06 80.6°F 84.1°F 70.3°F 30.00in 0.0mph 71% 0.00in 144.82 watts/m^2
12:12 81.0°F 84.5°F 69.8°F 30.00in 7.4mph 69% 0.00in 154.92 watts/m^2
12:17 81.3°F 85.2°F 70.7°F 29.99in 7.4mph 70% 0.00in 144.70 watts/m^2
12:22 81.9°F 85.6°F 69.8°F 30.00in 7.4mph 67% 0.00in 353.74 watts/m^2
12:27 82.2°F 85.9°F 69.8°F 29.99in 7.4mph 66% 0.00in 485.91 watts/m^2
12:32 82.6°F 86.9°F 70.5°F 29.98in 7.4mph 67% 0.00in 478.72 watts/m^2
12:37 83.1°F 87.3°F 70.2°F 29.99in 0.0mph 65% 0.00in 502.20 watts/m^2
12:42 83.7°F 88.6°F 71.2°F 29.99in 7.4mph 66% 0.00in 357.46 watts/m^2
12:47 83.8°F 88.8°F 71.2°F 29.99in 0.0mph 66% 0.00in 201.25 watts/m^2
12:52 84.4°F 89.1°F 70.5°F 29.99in 0.0mph 63% 0.00in 523.75 watts/m^2
12:58 84.6°F 89.5°F 70.7°F 29.98in 7.4mph 63% 0.00in 431.53 watts/m^2
13:03 85.1°F 90.8°F 71.6°F 29.98in 14.8mph 64% 0.00in 542.24 watts/m^2
13:08 85.3°F 91.9°F 72.7°F 29.98in 7.4mph 66% 0.00in 583.55 watts/m^2
13:13 85.5°F 91.2°F 71.4°F 29.98in 7.4mph 63% 0.00in 223.58 watts/m^2
13:18 85.6°F 92.1°F 72.5°F 29.98in 0.0mph 65% 0.00in 573.65 watts/m^2
13:23 85.6°F 91.4°F 71.6°F 29.98in 7.4mph 63% 0.00in 531.81 watts/m^2
13:28 85.8°F 91.4°F 71.4°F 29.97in 14.8mph 62% 0.00in 560.44 watts/m^2
13:33 86.0°F 91.8°F 71.6°F 29.98in 14.8mph 62% 0.00in 567.52 watts/m^2
13:38 86.2°F 91.9°F 71.2°F 29.96in 7.4mph 61% 0.00in 570.18 watts/m^2
13:42 86.4°F 92.3°F 71.4°F 29.96in 7.4mph 61% 0.00in 571.17 watts/m^2
13:47 86.4°F 91.9°F 70.9°F 29.97in 14.8mph 60% 0.00in 578.81 watts/m^2
13:52 86.5°F 92.5°F 71.6°F 29.97in 14.8mph 61% 0.00in 583.08 watts/m^2
13:57 86.5°F 92.8°F 72.0°F 29.96in 14.8mph 62% 0.00in 202.95 watts/m^2
14:02 86.5°F 92.5°F 71.6°F 29.96in 14.8mph 61% 0.00in 496.42 watts/m^2
14:07 86.5°F 91.7°F 70.5°F 29.95in 0.0mph 59% 0.00in 588.24 watts/m^2
14:12 86.7°F 92.1°F 70.7°F 29.96in 14.8mph 59% 0.00in 570.96 watts/m^2
14:18 86.9°F 92.5°F 70.9°F 29.95in 22.1mph 59% 0.00in 554.43 watts/m^2
14:23 86.9°F 92.1°F 70.3°F 29.95in 29.5mph 58% 0.00in 569.52 watts/m^2
14:28 86.9°F 91.7°F 70.0°F 29.94in 7.4mph 57% 0.00in 589.07 watts/m^2
14:33 87.1°F 91.7°F 69.6°F 29.93in 14.8mph 56% 0.00in 602.48 watts/m^2
14:38 87.6°F 92.2°F 69.4°F 29.93in 7.4mph 55% 0.00in 606.63 watts/m^2
14:43 88.0°F 93.8°F 70.9°F 29.93in 0.0mph 57% 0.00in 617.36 watts/m^2
14:48 88.2°F 93.8°F 70.5°F 29.93in 14.8mph 56% 0.00in 623.35 watts/m^2
14:53 88.3°F 94.0°F 70.7°F 29.93in 0.0mph 56% 0.00in 236.15 watts/m^2
14:58 88.5°F 94.4°F 70.9°F 29.91in 22.1mph 56% 0.00in 161.82 watts/m^2
15:03 88.9°F 94.7°F 70.7°F 29.92in 7.4mph 55% 0.00in 249.38 watts/m^2
15:08 88.9°F 95.2°F 71.2°F 29.92in 14.8mph 56% 0.00in 647.45 watts/m^2
15:13 88.7°F 94.3°F 70.5°F 29.91in 14.8mph 55% 0.00in 615.78 watts/m^2
15:18 88.7°F 93.5°F 69.4°F 29.90in 7.4mph 53% 0.00in 616.11 watts/m^2
15:23 89.1°F 93.4°F 68.7°F 29.91in 7.4mph 51% 0.00in 601.30 watts/m^2
15:28 89.4°F 93.5°F 68.4°F 29.89in 14.8mph 50% 0.00in 605.46 watts/m^2
15:34 89.8°F 94.2°F 68.7°F 29.90in 14.8mph 50% 0.00in 573.10 watts/m^2
15:39 90.0°F 94.6°F 68.9°F 29.90in 14.8mph 50% 0.00in 592.60 watts/m^2
15:44 90.1°F 94.8°F 69.1°F 29.89in 0.0mph 50% 0.00in 241.20 watts/m^2
15:49 90.7°F 95.5°F 68.9°F 29.89in 0.0mph 49% 0.00in 112.10 watts/m^2
15:54 90.7°F 95.5°F 68.9°F 29.88in 7.4mph 49% 0.00in 142.26 watts/m^2
15:59 90.7°F 95.5°F 68.9°F 29.88in 7.4mph 49% 0.00in 567.16 watts/m^2
16:04 90.7°F 95.0°F 68.4°F 29.88in 7.4mph 48% 0.00in 558.65 watts/m^2
16:09 90.9°F 95.8°F 69.1°F 29.87in 22.1mph 49% 0.00in 575.16 watts/m^2
16:14 90.9°F 95.8°F 69.1°F 29.88in 0.0mph 49% 0.00in 568.03 watts/m^2
16:19 91.0°F 95.1°F 68.0°F 29.88in 0.0mph 47% 0.00in 573.83 watts/m^2
16:24 91.2°F 95.0°F 67.6°F 29.87in 7.4mph 46% 0.00in 558.74 watts/m^2
16:30 91.2°F 95.9°F 68.9°F 29.87in 7.4mph 48% 0.00in 146.33 watts/m^2
16:35 91.2°F 95.9°F 68.9°F 29.87in 14.8mph 48% 0.00in 514.22 watts/m^2
16:40 91.2°F 95.9°F 68.9°F 29.86in 14.8mph 48% 0.00in 488.03 watts/m^2
16:45 91.4°F 95.4°F 67.8°F 29.86in 0.0mph 46% 0.00in 487.46 watts/m^2
16:50 91.4°F 94.5°F 66.6°F 29.86in 7.4mph 44% 0.00in 316.09 watts/m^2
16:55 91.2°F 94.5°F 66.9°F 29.86in 7.4mph 45% 0.00in 102.03 watts/m^2
17:00 91.2°F 95.0°F 67.6°F 29.86in 7.4mph 46% 0.00in 98.84 watts/m^2
17:05 91.2°F 94.5°F 66.9°F 29.86in 14.8mph 45% 0.00in 144.07 watts/m^2
17:10 91.2°F 95.0°F 67.6°F 29.85in 0.0mph 46% 0.00in 143.97 watts/m^2
17:15 91.2°F 95.0°F 67.6°F 29.85in 14.8mph 46% 0.00in 111.62 watts/m^2
17:20 91.0°F 95.6°F 68.7°F 29.85in 7.4mph 48% 0.00in 125.39 watts/m^2
17:25 90.9°F 95.4°F 68.5°F 29.85in 0.0mph 48% 0.00in 110.63 watts/m^2
17:30 90.9°F 95.4°F 68.5°F 29.85in 7.4mph 48% 0.00in 79.23 watts/m^2
17:35 90.9°F 95.4°F 68.5°F 29.85in 7.4mph 48% 0.00in 136.40 watts/m^2
17:40 90.7°F 95.5°F 68.9°F 29.84in 7.4mph 49% 0.00in 55.27 watts/m^2
17:46 90.5°F 95.1°F 68.7°F 29.85in 0.0mph 49% 0.00in 73.64 watts/m^2
17:51 90.5°F 95.5°F 69.4°F 29.84in 22.1mph 50% 0.00in 57.36 watts/m^2
17:56 90.1°F 94.3°F 68.5°F 29.84in 14.8mph 49% 0.00in 61.73 watts/m^2
18:01 90.1°F 94.3°F 68.5°F 29.84in 7.4mph 49% 0.00in 46.85 watts/m^2
18:06 90.0°F 94.2°F 68.4°F 29.84in 14.8mph 49% 0.00in 47.51 watts/m^2
18:08 90.0°F 94.2°F 68.4°F 29.83in 7.4mph 49% 0.00in 64.58 watts/m^2
18:13 90.0°F 94.2°F 68.4°F 29.84in 14.8mph 49% 0.00in 57.19 watts/m^2
18:18 89.8°F 94.2°F 68.7°F 29.83in 22.1mph 50% 0.00in 48.75 watts/m^2
18:21 89.8°F 94.2°F 68.7°F 29.84in 7.4mph 50% 0.00in 45.74 watts/m^2
Comma Delimited File
Powered by Weather Underground, Inc.